Flag for United Kingdom Weather past 2 weeks in Cheltenham, England, United Kingdom

Now
52 °F

Cool.


Feels Like: 46 °F
Forecast: 53 / 56 °F
Wind: 20 mph from West

Location: Little Rissington

Current Time: Dec 18, 2014 at 5:48:40 AM

Latest Report: Dec 18, 2014 at 5:00 AM


Visibility: 28 mi

Pressure: 29.76 "Hg

Humidity: 97%

Dew point: 51 °F

Location of CheltenhamLocation

Historic Weather in Cheltenham — Graph

°F

Cheltenham temperature yesterday

Maximum temperature yesterday: 53 °F (at 1:00 PM)
Minimum temperature yesterday: 43 °F (at 12:00 AM)
Average temperature yesterday: 50 °F

Past Weeks' High & Low Weather Summary

 TemperatureHumidityPressure
High53 °F (Dec 17, 1:00 PM)100% (Dec 3, 10:00 PM)30.39 "Hg (Dec 3, 10:00 PM)
Low30 °F (Dec 13, 7:00 AM)65% (Dec 10, 12:00 PM)29.21 "Hg (Dec 12, 4:00 AM)
Average39 °F91%29.96 "Hg
* Reported Dec 3 4:00 AM — Dec 18 4:00 AM, Cheltenham, Weather by CustomWeather, © 2014

Note: Actual official high and low records may vary slightly from our data, if they occured in-between our weather recording intervals... More about our weather records

Advertising

Cheltenham weather history for previous 24 hours

 ConditionsComfort  
Time TempWeatherWind HumidityBarometerVisibility
4:00 AM
Dec 18
52 °FCool.18 mph99%29.77 "Hg22 mi
3:00 AM51 °FCool.17 mph99%29.77 "Hg11 mi
2:00 AM52 °FCool.16 mph98%29.77 "Hg17 mi
1:00 AM51 °FCool.15 mph100%29.77 "Hg11 mi
12:00 AM51 °FCool.13 mph100%29.78 "Hg9 mi
11:00 PM
Dec 17
51 °FCool.13 mph100%29.77 "Hg7 mi
10:00 PM51 °FCool.12 mph100%29.77 "Hg9 mi
9:00 PM51 °FCool.10 mph100%29.77 "Hg7 mi
8:00 PM50 °FCool.13 mph100%29.77 "Hg3 mi
7:00 PM50 °FCool.14 mph100%29.76 "Hg4 mi
6:00 PM50 °FCool.12 mph100%29.75 "Hg1 mi
5:00 PM51 °FCool.13 mph97%29.74 "Hg6 mi
4:00 PM51 °FCool.10 mph94%29.73 "Hg25 mi
3:00 PM52 °FCool.13 mph92%29.72 "Hg31 mi
2:00 PM53 °FCool.13 mph89%29.70 "Hg40 mi
1:00 PM53 °FCool.17 mph89%29.70 "Hg37 mi
12:00 PM52 °FCool.16 mph90%29.70 "Hg43 mi
11:00 AM52 °FCool.12 mph91%29.71 "Hg37 mi
10:00 AM51 °FCool.17 mph92%29.68 "Hg37 mi
9:00 AM51 °FCool.13 mph93%29.66 "Hg37 mi
8:00 AM51 °FCool.14 mph93%29.65 "Hg13 mi
7:00 AM51 °FCool.15 mph93%29.64 "Hg14 mi
6:00 AM50 °FCool.14 mph96%29.62 "Hg13 mi
5:00 AM50 °FCool.13 mph100%29.62 "Hg12 mi
Weather by CustomWeather, © 2014

See weather overviewHow to use our weather pages